Regional Weather Roundup
Issued by NWS

Home | Current Version | Previous Version | Graphics & Text | Print | Product List | Glossary On
Versions: 1 2 3 4 5 6 7 8 9 10 11 12 13 14 15 16 17 18 19 20 21 22 23 24 25 26 27 28 29 30 31 32 33 34 35 36 37 38 39 40 41 42 43 44 45 46 47 48 49 50
000
ASUS45 KCYS 302110
RWRWY

WYOMING REGIONAL WEATHER ROUNDUP
NATIONAL WEATHER SERVICE CHEYENNE WY
300 PM MDT SAT JUL 30 2016

NOTE:  "FAIR" INDICATES FEW OR NO CLOUDS BELOW 12,000 FEET
WITH NO SIGNIFICANT WEATHER AND/OR OBSTRUCTIONS TO VISIBILITY.

WYZ001-302200-
YELLOWSTONE NATIONAL PARK

CITY           SKY/WX    TMP DP  RH WIND       PRES   REMARKS
LK YELLOWSTONE   N/A     75  33  21 W12G20    30.18S
W YELLOWSTONE  NOT AVBL

$$
WYZ002>013-054>058-071-098>099-302200-
NORTHERN WYOMING

CITY           SKY/WX    TMP DP  RH WIND       PRES   REMARKS
JACKSON        MOSUNNY   75  43  31 SW12G30   30.14R
CODY           FAIR      90  43  19 CALM      29.89F
GREYBULL       FAIR      97  36  12 VRB5      29.79F HX  92
WORLAND        FAIR      96  38  13 N10       29.81F HX  91
SHERIDAN       FAIR      98  45  16 NE9       29.80F HX  94
BUFFALO        FAIR      95  33  11 SW13G21   29.86F HX  90
GILLETTE       FAIR      91  45  20 S13G24    29.87F
HULETT         FAIR      90  41  18 CALM      29.90F
NEWCASTLE      FAIR      88  41  19 S6        29.92F

$$
WYZ014>020-022>026-101>103-302200-
CENTRAL WYOMING

CITY           SKY/WX    TMP DP  RH WIND       PRES   REMARKS
BIG PINEY      PTSUNNY   68  50  52 MISG      30.22S
PINEDALE       MOCLDY    77  36  22 SW22      30.19R
DUBOIS         FAIR      84  30  14 NW16G35   30.10S
LANDER         FAIR      89  34  14 NW8       29.96F
RIVERTON       FAIR      90  40  17 S13       29.95F
CASPER         FAIR      92  38  15 S8        29.93F
DOUGLAS        FAIR      93  45  19 SE13G23   29.94F

$$
WYZ021-027>030-104>119-302200-
SOUTHERN WYOMING

CITY           SKY/WX    TMP DP  RH WIND       PRES   REMARKS
EVANSTON       FAIR      82  39  21 N24G32    30.18S
KEMMERER         N/A     81  36  19 NW16G25   30.21R
FORT BRIDGER   LGT RAIN  80  35  19 W10G26    30.18F
ROCK SPRINGS   FAIR      91  30  11 W10G23    30.10F
DIXON          FAIR      90  30  12 N23G32    30.14S
RAWLINS        FAIR      86  31  13 NW13G25   30.09F
SARATOGA       FAIR      84  30  14 SW5       30.14F
LARAMIE        FAIR      85  32  15 N8G26     30.14F
CHEYENNE       FAIR      86  47  25 E8        30.07F
TORRINGTON     FAIR      89  62  40 SE14G22   29.92F
PINE BLUFFS    FAIR      86  46  25 MISG      30.03S

$$



USA.gov is the U.S. government's official web portal to all federal, state and local government web resources and services.